Weather History for Haleyville, AL

Change the Weather History Date:

Friday, November 15, 2013

  Actual Average (KJFX) Record (KJFX)
Temperature  
Mean Temperature 48 °F -  
Max Temperature 52 °F 61 °F 82 °F (1964)
Min Temperature 45 °F 35 °F 13 °F (1969)
Degree Days  
Heating Degree Days 16    
Moisture  
Dew Point 46 °F    
Average Humidity 89    
Maximum Humidity 100    
Minimum Humidity 52    
Precipitation  
Precipitation 0.24 in - - ()
Sea Level Pressure  
Sea Level Pressure 30.18 in    
Wind  
Wind Speed 6 mph (SE)    
Max Wind Speed 12 mph    
Max Gust Speed -    
Visibility 4 miles    
Events Fog , Rain    
Averages and records for this station are not official NWS values.
T = Trace of Precipitation, MM = Missing Value Source: NWS Daily Summary

Daily Weather History Graph

Daily Weather History Graph

Search for Another Location

Airport:

Trip Planner

Search our weather history database for the weather conditions in past years. The results will help you decide how hot, cold, wet, or windy it might be!

Date:

Astronomy

Nov. 15, 2013 Rise Set
Actual Time 6:23 AM CST 4:46 PM CST
Civil Twilight 5:56 AM CST 5:12 PM CST
Nautical Twilight 5:26 AM CST 5:43 PM CST
Astronomical Twilight 4:56 AM CST 6:12 PM CST
Moon 3:39 PM CST (11/15) 4:24 AM CST (11/15)
Length of Visible Light 11h 15m
Length of Day
10h 22m
Waxing Gibbous, 96% of the Moon is Illuminated
Nov 15
Waxing Gibbous
Nov 17
Full
Nov 25
Last Quarter
Dec 2
New
Dec 9
First Quarter

Hourly Weather History & Observations

Time (CST) Temp. Windchill Dew Point Humidity Pressure Visibility Wind Dir Wind Speed Gust Speed Precip Events Conditions
12:56 AM 45.0 °F 39.7 °F 28.0 °F 52% 30.25 in 10.0 mi SSE 10.4 mph - N/A   Partly Cloudy
1:56 AM 45.0 °F 41.8 °F 30.0 °F 56% 30.24 in 10.0 mi SSE 5.8 mph - N/A   Partly Cloudy
2:56 AM 45.9 °F 42.9 °F 31.1 °F 56% 30.24 in 10.0 mi SSE 5.8 mph - N/A   Mostly Cloudy
3:56 AM 46.9 °F - 32.0 °F 56% 30.24 in 10.0 mi SE 4.6 mph - N/A   Mostly Cloudy
4:56 AM 46.9 °F - 32.9 °F 58% 30.24 in 10.0 mi SE 4.6 mph - N/A   Mostly Cloudy
5:56 AM 46.9 °F - 32.9 °F 58% 30.25 in 10.0 mi ESE 3.5 mph - N/A   Mostly Cloudy
6:56 AM 46.9 °F - 34.9 °F 63% 30.25 in 10.0 mi ESE 4.6 mph - N/A   Mostly Cloudy
7:56 AM 47.8 °F - 36.0 °F 63% 30.25 in 10.0 mi East 4.6 mph - N/A   Mostly Cloudy
8:56 AM 50.9 °F - 38.8 °F 63% 30.25 in 10.0 mi SE 5.8 mph - N/A   Partly Cloudy
9:56 AM 52.9 °F - 41.0 °F 64% 30.25 in 10.0 mi SE 5.8 mph - N/A   Partly Cloudy
10:45 AM 51.8 °F - 44.6 °F 76% 30.21 in 2.0 mi SSE 6.9 mph - 0.01 in Rain Heavy Rain
10:47 AM 50.0 °F - 44.6 °F 82% 30.21 in 1.5 mi SE 4.6 mph - 0.02 in Rain Heavy Rain
10:49 AM 50.0 °F - 44.6 °F 82% 30.21 in 1.2 mi SE 4.6 mph - 0.02 in Rain Heavy Rain
10:56 AM 48.9 °F - 45.0 °F 86% 30.23 in 2.0 mi Variable 3.5 mph - 0.03 in Rain Heavy Rain
11:06 AM 48.2 °F - 46.4 °F 93% 30.20 in 5.0 mi ESE 3.5 mph - 0.00 in Rain Light Rain
11:42 AM 48.2 °F - 46.4 °F 93% 30.19 in 3.0 mi SE 4.6 mph - 0.02 in Rain Rain
11:56 AM 48.9 °F - 46.9 °F 93% 30.22 in 3.0 mi SW 3.5 mph - 0.04 in Rain Rain
12:25 PM 48.2 °F - 48.2 °F 100% 30.17 in 2.0 mi Variable 3.5 mph - 0.04 in Rain Heavy Rain
12:56 PM 48.9 °F - 47.8 °F 96% 30.19 in 2.5 mi SSE 4.6 mph - 0.08 in Rain Heavy Rain
1:06 PM 48.2 °F - 48.2 °F 100% 30.15 in 1.8 mi SE 5.8 mph - 0.01 in Rain Rain
1:16 PM 48.2 °F - 48.2 °F 100% 30.14 in 2.0 mi SE 6.9 mph - 0.04 in Rain Heavy Rain
1:24 PM 48.2 °F - 48.2 °F 100% 30.14 in 1.8 mi SE 6.9 mph - 0.06 in Rain Heavy Rain
1:31 PM 48.2 °F - 48.2 °F 100% 30.12 in 3.0 mi SE 11.5 mph - 0.07 in Rain Rain
1:56 PM 50.0 °F - 50.0 °F 100% 30.12 in 4.0 mi ESE 10.4 mph - 0.09 in Rain Rain
2:03 PM 50.0 °F - 50.0 °F 100% 30.11 in 4.0 mi Variable 5.8 mph - 0.00 in Rain Light Rain
2:56 PM 50.9 °F - 50.9 °F 100% 30.14 in 4.0 mi ESE 5.8 mph - 0.00 in   Overcast
3:56 PM 52.0 °F - 52.0 °F 100% 30.12 in 5.0 mi Variable 5.8 mph - N/A   Overcast
4:56 PM 50.9 °F - 50.9 °F 100% 30.14 in 7.0 mi SE 5.8 mph - N/A   Overcast
5:56 PM 50.9 °F - 50.9 °F 100% 30.16 in 7.0 mi SE 4.6 mph - N/A   Overcast
6:32 PM 51.8 °F - 51.8 °F 100% 30.13 in 1.8 mi SE 6.9 mph - N/A   Overcast
6:56 PM 50.9 °F - 50.9 °F 100% 30.16 in 1.0 mi SSE 8.1 mph - N/A   Overcast
7:08 PM 51.8 °F - 51.8 °F 100% 30.12 in 1.2 mi ESE 4.6 mph - N/A   Overcast
7:26 PM 51.8 °F - 51.8 °F 100% 30.13 in 1.0 mi SE 5.8 mph - N/A   Overcast
7:39 PM 51.8 °F - 51.8 °F 100% 30.13 in 1.2 mi SSE 4.6 mph - N/A   Overcast
7:46 PM 51.8 °F - 51.8 °F 100% 30.13 in 1.8 mi SE 4.6 mph - N/A   Overcast
7:56 PM 50.9 °F - 50.9 °F 100% 30.17 in 2.5 mi SSE 5.8 mph - N/A   Overcast
8:29 PM 51.8 °F - 51.8 °F 100% 30.14 in 4.0 mi SSE 6.9 mph - N/A   Overcast
8:56 PM 50.9 °F - 50.9 °F 100% 30.19 in 3.0 mi SSE 4.6 mph - N/A   Overcast
9:15 PM 51.8 °F - 51.8 °F 100% 30.15 in 2.5 mi SSE 5.8 mph - N/A   Overcast
9:37 PM 51.8 °F - 51.8 °F 100% 30.16 in 3.0 mi SSE 4.6 mph - N/A   Overcast
9:56 PM 50.9 °F - 50.9 °F 100% 30.19 in 4.0 mi South 4.6 mph - N/A   Overcast
10:38 PM 51.8 °F - 51.8 °F 100% 30.15 in 1.8 mi SSE 8.1 mph - N/A   Overcast
10:56 PM 52.0 °F - 52.0 °F 100% 30.18 in 1.8 mi SSE 6.9 mph - N/A   Overcast
11:19 PM 51.8 °F - 51.8 °F 100% 30.14 in 1.0 mi SSE 9.2 mph - N/A   Overcast
11:26 PM 51.8 °F - 51.8 °F 100% 30.13 in 0.5 mi SSE 9.2 mph - N/A Fog Fog
11:56 PM 52.0 °F - 52.0 °F 100% 30.17 in 0.2 mi SSE 5.8 mph - N/A Fog Fog